| time (UTC) | temp F | wind direction | speed MPH | gust MPH | rain 1hr in | rain 24hr in | rain mn in | humidity % | barometer mb |
| 20260502214536 | 43 | 215 | 0.0 | 3.0 | 0.00 | 0.06 | 0.01 | 75 | 1015.8 |
| 20260502213039 | 43 | 50 | 0.0 | 3.0 | 0.00 | 0.06 | 0.01 | 78 | 1015.8 |
| 20260502211544 | 43 | 226 | 0.0 | 4.0 | 0.00 | 0.06 | 0.01 | 78 | 1015.7 |
| 20260502210041 | 43 | 0 | 0.0 | 2.0 | 0.00 | 0.06 | 0.01 | 80 | 1015.7 |
| 20260502204538 | 42 | 256 | 0.0 | 2.0 | 0.00 | 0.13 | 0.01 | 81 | 1015.7 |
| 20260502203047 | 42 | 0 | 1.0 | 6.0 | 0.00 | 0.13 | 0.01 | 77 | 1015.8 |
| 20260502201540 | 43 | 50 | 0.0 | 2.0 | 0.00 | 0.13 | 0.01 | 80 | 1015.8 |
| 20260502200041 | 42 | 0 | 0.0 | 2.0 | 0.00 | 0.13 | 0.01 | 80 | 1015.7 |
| 20260502194548 | 42 | 0 | 0.0 | 0.0 | 0.00 | 0.16 | 0.01 | 83 | 1015.9 |
| 20260502193039 | 42 | 292 | 0.0 | 3.0 | 0.00 | 0.16 | 0.01 | 81 | 1015.9 |
| 20260502191542 | 42 | 65 | 0.0 | 4.0 | 0.00 | 0.16 | 0.01 | 82 | 1015.9 |
| 20260502190037 | 42 | 0 | 0.0 | 2.0 | 0.00 | 0.16 | 0.01 | 81 | 1016.2 |
| 20260502184543 | 42 | 27 | 0.0 | 4.0 | 0.00 | 0.20 | 0.01 | 81 | 1016.2 |
| 20260502183048 | 42 | 41 | 0.0 | 5.0 | 0.00 | 0.20 | 0.01 | 84 | 1016.2 |
| 20260502181538 | 42 | 0 | 0.0 | 5.0 | 0.00 | 0.20 | 0.01 | 85 | 1016.3 |
| 20260502163103 | 42 | 0 | 0.0 | 3.0 | 0.00 | 0.22 | 0.01 | 89 | 1016.0 |
| 20260502161542 | 41 | 178 | 0.0 | 1.0 | 0.00 | 0.22 | 0.01 | 90 | 1016.0 |
| 20260502151539 | 43 | 0 | 0.0 | 3.0 | 0.00 | 0.22 | 0.01 | 88 | 1015.5 |
| 20260502123045 | 38 | 0 | 0.0 | 0.0 | 0.00 | 0.21 | 0.00 | 93 | 1016.0 |
| 20260502121542 | 37 | 0 | 0.0 | 0.0 | 0.00 | 0.21 | 0.00 | 93 | 1016.0 |
| 20260502114546 | 35 | 0 | 0.0 | 0.0 | 0.00 | 0.21 | 0.00 | 93 | 1016.0 |
| 20260502113039 | 34 | 0 | 0.0 | 0.0 | 0.00 | 0.21 | 0.00 | 93 | 1016.2 |
| 20260502111547 | 34 | 0 | 0.0 | 0.0 | 0.00 | 0.21 | 0.00 | 93 | 1016.0 |
| 20260502110042 | 34 | 0 | 0.0 | 0.0 | 0.00 | 0.21 | 0.00 | 93 | 1015.9 |
| 20260502104541 | 34 | 0 | 0.0 | 0.0 | 0.00 | 0.21 | 0.00 | 93 | 1015.9 |
| 20260502103039 | 33 | 0 | 0.0 | 0.0 | 0.00 | 0.21 | 0.00 | 93 | 1015.9 |
| 20260502101537 | 33 | 0 | 0.0 | 0.0 | 0.00 | 0.21 | 0.00 | 93 | 1016.2 |
| 20260502070049 | 33 | 0 | 0.0 | 0.0 | 0.00 | 0.21 | 0.00 | 93 | 1015.8 |
| 20260502064545 | 32 | 0 | 0.0 | 0.0 | 0.00 | 0.21 | 0.00 | 94 | 1016.0 |
| 20260502063040 | 32 | 0 | 0.0 | 0.0 | 0.00 | 0.21 | 0.00 | 94 | 1016.0 |
| 20260502061535 | 33 | 0 | 0.0 | 0.0 | 0.00 | 0.21 | 0.00 | 94 | 1016.2 |
| 20260502060040 | 33 | 0 | 0.0 | 0.0 | 0.00 | 0.21 | 0.00 | 94 | 1016.1 |
| 20260502054540 | 33 | 0 | 0.0 | 0.0 | 0.00 | 0.21 | 0.00 | 94 | 1016.2 |
| 20260502053038 | 34 | 0 | 0.0 | 0.0 | 0.00 | 0.21 | 0.00 | 94 | 1016.2 |
| 20260502051537 | 34 | 0 | 0.0 | 0.0 | 0.00 | 0.21 | 0.00 | 94 | 1016.2 |
| 20260502050036 | 34 | 0 | 0.0 | 0.0 | 0.00 | 0.21 | 0.00 | 94 | 1016.3 |
| 20260502044539 | 35 | 0 | 0.0 | 0.0 | 0.00 | 0.21 | 0.00 | 94 | 1016.3 |
| 20260502043047 | 35 | 0 | 0.0 | 0.0 | 0.00 | 0.21 | 0.00 | 94 | 1016.3 |
| 20260502041546 | 36 | 0 | 0.0 | 0.0 | 0.00 | 0.21 | 0.00 | 94 | 1016.3 |
| 20260502040038 | 36 | 0 | 0.0 | 0.0 | 0.00 | 0.21 | 0.00 | 94 | 1016.2 |
| 20260502034539 | 37 | 0 | 0.0 | 0.0 | 0.00 | 0.21 | 0.21 | 94 | 1016.1 |
| 20260502033042 | 37 | 0 | 0.0 | 0.0 | 0.00 | 0.21 | 0.21 | 94 | 1015.9 |
| 20260502031540 | 37 | 0 | 0.0 | 0.0 | 0.00 | 0.21 | 0.21 | 94 | 1015.9 |
| 20260502030040 | 38 | 0 | 0.0 | 0.0 | 0.00 | 0.21 | 0.21 | 94 | 1015.9 |
| 20260502024541 | 38 | 0 | 0.0 | 0.0 | 0.00 | 0.21 | 0.21 | 94 | 1016.0 |
| 20260502023035 | 39 | 0 | 0.0 | 1.0 | 0.00 | 0.21 | 0.21 | 94 | 1015.9 |
| 20260502021545 | 39 | 129 | 0.0 | 3.0 | 0.00 | 0.21 | 0.21 | 94 | 1015.8 |
| 20260502020043 | 40 | 0 | 0.0 | 1.0 | 0.00 | 0.21 | 0.21 | 94 | 1015.5 |
| 20260502014551 | 40 | 0 | 0.0 | 2.0 | 0.00 | 0.21 | 0.21 | 94 | 1015.3 |
| 20260502013038 | 40 | 0 | 0.0 | 2.0 | 0.00 | 0.21 | 0.21 | 94 | 1015.0 |
| 20260502011544 | 40 | 0 | 0.0 | 2.0 | 0.00 | 0.21 | 0.21 | 94 | 1015.0 |
| 20260502010040 | 40 | 0 | 0.0 | 1.0 | 0.00 | 0.21 | 0.21 | 94 | 1014.7 |
| 20260502004539 | 41 | 244 | 0.0 | 2.0 | 0.00 | 0.21 | 0.21 | 94 | 1014.0 |
| 20260502003037 | 41 | 0 | 0.0 | 4.0 | 0.00 | 0.21 | 0.21 | 94 | 1013.6 |
| 20260502001536 | 42 | 0 | 1.0 | 5.0 | 0.00 | 0.21 | 0.21 | 94 | 1013.1 |
| 20260502000052 | 42 | 0 | 0.0 | 5.0 | 0.01 | 0.21 | 0.21 | 94 | 1012.8 |
| 20260501234541 | 43 | 0 | 0.0 | 5.0 | 0.05 | 0.21 | 0.21 | 94 | 1012.7 |
| 20260501233038 | 43 | 0 | 0.0 | 5.0 | 0.05 | 0.21 | 0.21 | 93 | 1012.3 |
| 20260501231542 | 44 | 160 | 0.0 | 4.0 | 0.05 | 0.21 | 0.21 | 93 | 1011.8 |
| 20260501230037 | 47 | 0 | 2.0 | 13.0 | 0.03 | 0.19 | 0.19 | 92 | 1012.2 |
| 20260501224536 | 47 | 0 | 0.0 | 1.0 | 0.00 | 0.16 | 0.16 | 94 | 1011.5 |
| 20260501223039 | 47 | 0 | 0.0 | 1.0 | 0.00 | 0.16 | 0.16 | 94 | 1011.6 |
| 20260501221539 | 47 | 0 | 0.0 | 0.0 | 0.00 | 0.16 | 0.16 | 94 | 1011.7 |
| 20260501220041 | 47 | 0 | 0.0 | 1.0 | 0.00 | 0.16 | 0.16 | 93 | 1011.7 |